User: anonymous   Login
Location: Unspecified
(0.0000°N, 0.0000°E)
Time: 01:25:25
(UTC+01:00)
Language:

AO-7 - Orbit

View from above orbital plane
View from above orbital plane
View from above satellite
View from above satellite

Ground track
Ground track

The orbit data is extracted from the following two-line orbital elements,

1 07530U 74089B   17022.52865809 -.00000030  00000-0  87398-4 0  9991
2 07530 101.6096 354.2077 0011746 244.8427 229.1282 12.53625128930607
Epoch (UTC): 22 January 2017 12:41:16
Eccentricity: 0.0011746
inclination: 101.6096°
perigee height: 1440 km
apogee height: 1458 km
right ascension of ascending node: 354.2077°
argument of perigee: 244.8427°
revolutions per day: 12.53625128
mean anomaly at epoch: 229.1282°
orbit number at epoch: 93060

The dashed part of the orbit path shows where the satellite is in the earth's shadow,  

DLR